Weather History for Kayseri, Turkey

Change the Weather History Date:

Wednesday, December 11, 2013

  Actual Average Record
Temperature  
Mean Temperature 14 °F -  
Max Temperature 24 °F 40 °F 53 °F (2007)
Min Temperature 5 °F 21 °F 5 °F (2013)
Degree Days  
Heating Degree Days 50    
Moisture  
Dew Point 14 °F    
Average Humidity 77    
Maximum Humidity 97    
Minimum Humidity 49    
Precipitation  
Precipitation 0.00 in - - ()
Sea Level Pressure  
Sea Level Pressure 30.02 in    
Wind  
Wind Speed 5 mph ()    
Max Wind Speed 17 mph    
Max Gust Speed -    
Visibility 5.4 miles    
Events Snow    
Averages and records for this station are not official NWS values.
T = Trace of Precipitation, MM = Missing Value Source: Averaged Metar Reports

Daily Weather History Graph

Daily Weather History Graph

Search for Another Location

Airport:

Trip Planner

Search our weather history database for the weather conditions in past years. The results will help you decide how hot, cold, wet, or windy it might be!

Date:

Astronomy

Dec. 11, 2013 Rise Set
Actual Time 6:46 AM EET 4:16 PM EET
Civil Twilight 6:16 AM EET 4:46 PM EET
Nautical Twilight 5:42 AM EET 5:19 PM EET
Astronomical Twilight 5:10 AM EET 5:51 PM EET
Moon 12:36 PM EET (12/11) 12:48 AM EET (12/11)
Length of Visible Light 10h 29m
Length of Day
9h 30m
Waxing Gibbous, 69% of the Moon is Illuminated
Dec 11
Waxing Gibbous
Dec 17
Full
Dec 25
Last Quarter
Jan 1
New
Jan 8
First Quarter

Hourly Weather History & Observations

Time (EET) Temp. Windchill Dew Point Humidity Pressure Visibility Wind Dir Wind Speed Gust Speed Precip Events Conditions
12:20 AM 24.8 °F 17.9 °F 23.0 °F 93% 29.98 in 1.6 mi NNE 5.8 mph - N/A Snow Light Snow
12:50 AM 24.8 °F 19.1 °F 23.0 °F 93% 29.98 in 1.7 mi East 4.6 mph - N/A Snow Light Snow
1:20 AM 23.0 °F 18.4 °F 21.2 °F 93% 29.98 in 1.7 mi NNW 3.5 mph - N/A Snow Light Snow
1:50 AM 23.0 °F 14.7 °F 21.2 °F 93% 30.01 in 1.1 mi NNE 6.9 mph - N/A Snow Light Snow
2:00 AM 24 °F - 23 °F 92%  in 1 mi NNE 6.9 mph - - Snow Light Snow
2:20 AM 23.0 °F - 21.2 °F 93% 30.01 in 1.7 mi Variable 1.2 mph - N/A Snow Light Snow
2:50 AM 23.0 °F - 21.2 °F 93% 29.98 in 1.7 mi Calm Calm - N/A Snow Light Snow
3:20 AM 23.0 °F - 21.2 °F 93% 29.98 in 1.6 mi West 1.2 mph - N/A Snow Light Snow
3:50 AM 23.0 °F - 21.2 °F 93% 29.98 in 1.7 mi Calm Calm - N/A Snow Light Snow
4:20 AM 23.0 °F - 21.2 °F 93% 30.01 in 1.6 mi Calm Calm - N/A Snow Light Snow
4:50 AM 21.2 °F - 19.4 °F 93% 30.01 in 1.7 mi North 2.3 mph - N/A Snow Light Snow
5:00 AM 22 °F - 21 °F 95%  in 2 mi North 2.3 mph - - Snow Light Snow
5:20 AM 21.2 °F 14.9 °F 19.4 °F 93% 30.01 in 1.7 mi North 4.6 mph - N/A Snow Light Snow
5:50 AM 21.2 °F - 19.4 °F 93% 30.01 in 1.8 mi North 1.2 mph - N/A Snow Light Snow
6:20 AM 21.2 °F 16.4 °F 19.4 °F 93% 30.01 in 3.7 mi ENE 3.5 mph - N/A Snow Light Snow
6:50 AM 21.2 °F 14.9 °F 19.4 °F 93% 30.01 in 5.0 mi NE 4.6 mph - N/A Snow Light Snow
7:20 AM 21.2 °F - 19.4 °F 93% 30.01 in 3.7 mi SE 1.2 mph - N/A   Overcast
7:50 AM 19.4 °F - 17.6 °F 93% 30.04 in 5.0 mi Variable 1.2 mph - N/A   Overcast
8:00 AM 20 °F - 20 °F 97%  in 5 mi SSE 1.2 mph - - Snow Light Snow
8:20 AM 19.4 °F - 15.8 °F 86% 30.04 in 5.6 mi Calm Calm - N/A   Mostly Cloudy
8:50 AM 19.4 °F - 15.8 °F 86% 30.04 in 6.2 mi Calm Calm - N/A   Mostly Cloudy
9:20 AM 21.2 °F - 17.6 °F 86% 30.04 in 6.2 mi Calm Calm - N/A   Mostly Cloudy
9:50 AM 23.0 °F - 19.4 °F 86% 30.04 in 6.2 mi Calm Calm - N/A   Mostly Cloudy
10:20 AM 23.0 °F 15.8 °F 15.8 °F 74% 30.04 in 6.2 mi ENE 5.8 mph - N/A   Mostly Cloudy
10:50 AM 23.0 °F 15.8 °F 15.8 °F 74% 30.04 in 6.2 mi NE 5.8 mph - N/A   Mostly Cloudy
11:00 AM 23 °F - 15 °F 60%  in 12 mi NE 4.6 mph - -   Partly Cloudy
11:20 AM 23.0 °F 14.7 °F 15.8 °F 74% 30.04 in 6.2 mi NNE 6.9 mph - N/A   Mostly Cloudy
11:50 AM 23.0 °F 11.7 °F 14.0 °F 68% 30.01 in 6.2 mi NE 11.5 mph - N/A   Mostly Cloudy
12:20 PM 24.8 °F 14.0 °F 14.0 °F 64% 30.01 in 6.2 mi NE 11.5 mph - N/A   Mostly Cloudy
12:50 PM 24.8 °F 14.6 °F 14.0 °F 64% 30.01 in 6.2 mi NE 10.4 mph - N/A   Mostly Cloudy
1:20 PM 24.8 °F 13.4 °F 14.0 °F 64% 30.01 in 6.2 mi ENE 12.7 mph - N/A   Mostly Cloudy
1:50 PM 24.8 °F 11.5 °F 14.0 °F 64% 30.01 in 6.2 mi NE 17.3 mph - N/A   Mostly Cloudy
2:00 PM 24 °F - 13 °F 49%  in 12 mi NE 17.3 mph - -   Mostly Cloudy
2:20 PM 23.0 °F 9.6 °F 14.0 °F 68% 29.98 in 6.2 mi NE 16.1 mph - N/A   Mostly Cloudy
2:50 PM 23.0 °F 10.1 °F 12.2 °F 63% 29.98 in 6.2 mi NE 15.0 mph - N/A   Mostly Cloudy
3:20 PM 23.0 °F 11.1 °F 12.2 °F 63% 30.01 in 6.2 mi NE 12.7 mph - N/A   Mostly Cloudy
3:50 PM 23.0 °F 10.6 °F 12.2 °F 63% 30.01 in 6.2 mi NE 13.8 mph - N/A   Mostly Cloudy
4:20 PM 21.2 °F 8.3 °F 12.2 °F 68% 30.01 in 6.2 mi NE 13.8 mph - N/A   Mostly Cloudy
4:50 PM 21.2 °F 9.5 °F 12.2 °F 68% 30.01 in 6.2 mi NE 11.5 mph - N/A   Mostly Cloudy
5:00 PM 21 °F - 12 °F 56%  in 12 mi NE 11.5 mph - -   Partly Cloudy
5:20 PM 21.2 °F 11.7 °F 12.2 °F 68% 30.01 in 6.2 mi NNE 8.1 mph - N/A   Mostly Cloudy
5:50 PM 21.2 °F 11.7 °F 12.2 °F 68% 30.04 in 6.2 mi NE 8.1 mph - N/A   Mostly Cloudy
6:20 PM 21.2 °F 7.8 °F 12.2 °F 68% 30.04 in 6.2 mi NE 15.0 mph - N/A   Mostly Cloudy
6:50 PM 21.2 °F 10.1 °F 10.4 °F 63% 30.04 in 6.2 mi ENE 10.4 mph - N/A   Mostly Cloudy
7:20 PM 19.4 °F 7.2 °F 10.4 °F 68% 30.04 in 6.2 mi NE 11.5 mph - N/A   Mostly Cloudy
7:50 PM 17.6 °F 5.7 °F 8.6 °F 68% 30.04 in 6.2 mi NE 10.4 mph - N/A   Mostly Cloudy
8:00 PM 18 °F - 10 °F 60%  in 12 mi NE 10.4 mph - -   Partly Cloudy
8:20 PM 17.6 °F 3.7 °F 8.6 °F 68% 30.04 in 6.2 mi NE 13.8 mph - N/A   Mostly Cloudy
8:50 PM 17.6 °F 5.7 °F 8.6 °F 68% 30.06 in 6.2 mi NE 10.4 mph - N/A   Mostly Cloudy
9:20 PM 14.0 °F 3.9 °F 6.8 °F 73% 30.06 in 6.2 mi NE 6.9 mph - N/A   Mostly Cloudy
9:50 PM 14.0 °F 2.9 °F 5.0 °F 67% 30.04 in 6.2 mi ENE 8.1 mph - N/A   Scattered Clouds
10:20 PM 10.4 °F 0.8 °F 3.2 °F 73% 30.04 in 6.2 mi NNE 5.8 mph - N/A   Scattered Clouds
10:50 PM 8.6 °F - 1.4 °F 73% 30.04 in 6.2 mi Variable 1.2 mph - N/A   Scattered Clouds
11:00 PM 9 °F - 4 °F 72%  in 12 mi NNW 1.2 mph - -   Scattered Clouds
11:20 PM 5.0 °F - -2.2 °F 72% 30.04 in 6.2 mi Calm Calm - N/A   Scattered Clouds
11:50 PM 5.0 °F -2.1 °F -0.4 °F 78% 30.04 in 6.2 mi WNW 3.5 mph - N/A   Scattered Clouds